Regional Weather Roundup
Issued by NWS

Home | Current Version | Previous Version | Graphics & Text | Print | Product List | Glossary Off
Versions: 1 2 3 4 5 6 7 8 9 10 11 12 13 14 15 16 17 18 19 20 21 22 23 24 25 26 27 28 29 30 31 32 33 34 35 36 37 38 39 40 41 42 43 44 45 46 47 48 49 50

000
ASUS44 KFWD 081015
RWRTX
NORTH TEXAS HOURLY WEATHER ROUNDUP
NATIONAL WEATHER SERVICE FORT WORTH TX
400 AM CST MON FEB 08 2016

NOTE: "FAIR" INDICATES FEW OR NO CLOUDS BELOW 12,000 FEET WITH NO
SIGNIFICANT WEATHER AND/OR OBSTRUCTIONS TO VISIBILITY.

TXZ118-119-081100-
DALLAS/FORT WORTH METROPLEX

CITY           SKY/WX    TMP DP  RH WIND       PRES   REMARKS
DFW AIRPORT    PTCLDY    44  20  38 NW16      30.28S WCI  37
DALLAS LOVE    PTCLDY    44  20  38 NW9       30.28F WCI  39
FTW MEACHAM    PTCLDY    44  20  38 NW14      30.30S WCI  37
DAL-EXECUTIVE  PTCLDY    43  20  39 NW13      30.28R WCI  36
FTW-ALLIANCE   PTCLDY    41  18  39 NW9       30.30S WCI  35
FTW-NAS-JRB    PTCLDY    46  19  34 N14       30.31F WCI  40
FTW-SPINKS     CLEAR     44  18  35 NW13G20   30.32S WCI  37
ARLINGTON      CLEAR     46  19  34 NW15      30.30R WCI  40
GRAND PRAIRIE  PTCLDY    46  18  33 NW7       30.31S
ADDISON        PTCLDY    46  24  42 NW10      30.30R
MESQUITE       PTCLDY    45  18  33 NW12      30.28S WCI  40
LANCASTER      CLEAR     44  18  34 NW12      30.29S WCI  39
$$

TXZ091>094-102>105-117-120-121-131>134-081100-
NORTH CENTRAL TEXAS

CITY           SKY/WX    TMP DP  RH WIND       PRES   REMARKS
SHRMAN/DENISON CLOUDY    46  17  32 NW14      30.28S WCI  39
GAINESVILLE    PTCLDY    41  19  42 NW13      30.31S WCI  34
BOWIE          CLEAR     38  19  48 NW12      30.32S WCI  30
BRIDGEPORT     CLEAR     42  23  46 NW9       30.35S WCI  37
DECATUR        CLEAR     40  16  37 NW10G20   30.31R WCI  33
DENTON         CLEAR     41  19  41 NW13      30.30S WCI  34
MCKINNEY       CLEAR     43  20  39 NW14      30.27S WCI  36
GREENVILLE     PTCLDY    43  21  42 W8        30.25S WCI  38
ROCKWALL       PTCLDY    45  21  38 N10G18    30.26R WCI  40
TERRELL        PTCLDY    46  19  34 NW13      30.27R
WAXAHACHIE     CLEAR     44  22  40 NW10      30.29S WCI  39
CLEBURNE         N/A     41  19  42 NW9       30.32R WCI  35
GRANBURY       CLEAR     44  21  40 NW9       30.34S WCI  39
$$

TXZ083>090-098>101-113>116-127>130-139>142-154-155-081100-
WESTERN NORTH TEXAS

CITY           SKY/WX    TMP DP  RH WIND       PRES   REMARKS
WICHITA FALLS  CLEAR     35  19  52 NW14      30.36R WCI  26
WF-KICKAPOO    CLEAR     40  18  40 NW9G16    30.38R WCI  34
VERNON         CLEAR     37  12  36 NW14      30.40S WCI  28
ABILENE        CLEAR     33  19  56 N9        30.38S WCI  25
ABILENE-DYESS  CLEAR     33  20  58 NW9       30.38S WCI  25
BRECKENRIDGE   CLEAR     41  14  33 N8        30.37R WCI  36
GRAHAM         CLEAR     38  19  46 NW10      30.35R WCI  31
MINERAL WELLS  CLEAR     40  17  39 NW13      30.32S WCI  32
STEPHENVILLE   PTCLDY    43  16  33 N13       30.34S WCI  36
COMANCHE       CLEAR     41  19  40 N9        30.34S WCI  35
BROWNWOOD      PTCLDY    41  14  33 N8        30.35R WCI  36
COLEMAN        CLEAR     40  14  34 N12       30.35S WCI  33
$$

TXZ143>147-156>162-174-175-081100-
CENTRAL TEXAS

CITY           SKY/WX    TMP DP  RH WIND       PRES   REMARKS
WACO           CLEAR     45  25  45 N14       30.30R WCI  38
WACO-MCGREGOR  CLEAR     46  25  43 N10       30.30R
HILLSBORO      CLEAR     42  22  45 N13       30.29R WCI  35
CORSICANA      CLEAR     46  25  43 N9        30.28R
MEXIA          CLEAR     46  26  45 NW10G22   30.27R
HEARNE         CLEAR     36  32  86 W6        30.28R WCI  31
CAMERON        CLEAR     43  33  67 N8        30.27R WCI  38
TEMPLE         CLEAR     43  28  55 N10       30.29  WCI  37
KILLEEN        CLEAR     41  27  58 N14       30.28R WCI  33
KILLEEN-SKYLRK CLEAR     45  27  49 N10       30.29R WCI  40
FORT HOOD      CLEAR     44  26  49 N14       30.27R WCI  38
GATESVILLE     CLEAR     46  23  39 N12G17    30.33R
HAMILTON       CLEAR     43  21  41 N12       30.33R WCI  37
LAMPASAS       CLEAR     44  24  45 N9G17     30.29R WCI  39
$$

TXZ095>097-106>112-122>126-135>138-148>153-164>167-081100-
EAST TEXAS

CITY           SKY/WX    TMP DP  RH WIND       PRES   REMARKS
PARIS          CLOUDY    46  18  31 NW20G32   30.20R WCI  39
SULPHUR SPRNGS CLEAR     45  25  45 NW10      30.25R WCI  40
MOUNT PLEASANT CLOUDY    46  22  38 W12       30.20S
GILMER         PTCLDY    45  22  39 W8G16     30.19R
MINEOLA        PTCLDY    46  23  39 W9        30.23S
TYLER          CLEAR     47  21  35 NW13G21   30.21R
LONGVIEW       PTCLDY    46  23  40 NW15      30.17R WCI  40
MARSHALL       PTCLDY    47  22  36 NW10G17   30.17S
ATHENS         CLEAR     45  23  42 NW10G18   30.24R WCI  39
PALESTINE      CLEAR     46  28  47 NW8G18    30.25S
JACKSONVILLE   CLEAR     47  23  38 NW8       30.22R
HENDERSON      CLEAR     46  23  39 NW7       30.21R
CENTER         FAIR      41  33  73 CALM      30.15F
NACOGDOCHES    CLEAR     39  28  65 NW6       30.19R WCI  35
LUFKIN         CLEAR     40  33  76 NW3       30.20R
$$

SUPPLEMENTAL OBSERVATIONS (CENTRAL)

CITY           SKY/WX    TMP DP  RH WIND       PRES   REMARKS
LAKE TEXOMA      N/A     46  25  42 NW29        N/A  WCI  37
CADDO GRASSLND   N/A     46  18  31 NW9G17      N/A
PAT MAYSE LAKE   N/A     46  16  29 W16         N/A  WCI  40
GREENVILLE       N/A     43  23  45 NW8         N/A  WCI  38
CEDAR HILL       N/A     45  21  39 NW8         N/A
ATHENS           N/A     46  23  39 N7G15       N/A
MCGREGOR         N/A     45  27  49 N5G13       N/A
TEMPLE           N/A     48  27  43 N3          N/A
$$

SUPPLEMENTAL OBSERVATIONS (WEST)

CITY           SKY/WX    TMP DP  RH WIND       PRES   REMARKS
MILLERS CREEK    N/A     37  18  44 NW9         N/A  WCI  31
POSSUM KINGDOM   N/A     37  18  44 NW9         N/A  WCI  31
LBJ GRASSLAND    N/A     39  18  41 NW6         N/A  WCI  35
GRANBURY         N/A     43  21  42 NW12        N/A  WCI  37
HAMBY            N/A     32  21  64 N2          N/A
$$

SUPPLEMENTAL OBSERVATIONS (EAST)

CITY           SKY/WX    TMP DP  RH WIND       PRES   REMARKS
TEXARKANA        N/A     48  23  37 NW10G18     N/A
LINDEN           N/A     48  23  37 NW10G18     N/A
CADDO LAKE       N/A     46  23  39 NW6G14      N/A
LUFKIN           N/A     36  32  87 MISG        N/A
N SABINE NF      N/A     43  34  70 MISG        N/A
$$

SUPPLEMENTAL OBSERVATIONS ARE A COLLECTION OF AUTOMATED INSTRUMENTS
THAT ARE MAINTAINED BY A VARIETY OF FEDERAL AND STATE AGENCIES.
CERTAIN ELEMENTS...SUCH AS HUMIDITY VALUES AND SUSTAINED WIND
SPEEDS...MAY BE APPROXIMATED.




USA.gov is the U.S. government's official web portal to all federal, state and local government web resources and services.